Change the Weather History Date:

Friday, January 11, 2013

  Actual Average Record
Temperature  
Mean Temperature 59 °F 43 °F  
Max Temperature 69 °F 53 °F 73 °F (2014)
Min Temperature 49 °F 33 °F 17 °F (2004)
Degree Days  
Heating Degree Days 6 22  
Month to date heating degree days 188 241  
Since 1 July heating degree days 1202 1291  
Cooling Degree Days 0 0  
Month to date cooling degree days 0 0  
Year to date cooling degree days 0 0  
Growing Degree Days 8 (Base 50)    
Moisture  
Dew Point 51 °F    
Average Humidity 76    
Maximum Humidity 100    
Minimum Humidity 51    
Precipitation  
Precipitation 0.14 in 0.08 in 0.97 in (2014)
Month to date precipitation 0.52 0.94  
Year to date precipitation 0.52 0.94  
Sea Level Pressure  
Sea Level Pressure 30.28 in    
Wind  
Wind Speed 4 mph (ENE)    
Max Wind Speed 12 mph    
Max Gust Speed 15 mph    
Visibility 6 miles    
Events Fog , Rain    
T = Trace of Precipitation, MM = Missing Value Source: NWS Daily Summary

Daily Weather History Graph

Daily Weather History Graph

Search for Another Location

Airport or City:

Trip Planner

Search our weather history database for the weather conditions in past years. The results will help you decide how hot, cold, wet, or windy it might be!

Date:

Astronomy

Jan. 11, 2013 Rise Set
Actual Time 7:23 AM EST 5:25 PM EST
Civil Twilight 6:56 AM EST 5:52 PM EST
Nautical Twilight 6:24 AM EST 6:23 PM EST
Astronomical Twilight 5:54 AM EST 6:54 PM EST
Moon 6:56 AM EST (1/11) 5:38 PM EST (1/11)
Length of Visible Light 10h 56m
Length of Day
10h 01m
Waning Crescent, 0% of the Moon is Illuminated
Jan 11
Waning Crescent
Jan 11
New
Jan 18
First Quarter
Jan 26
Full
Feb 3
Last Quarter

Hourly Weather History & Observations

Time (EST) Temp. Dew Point Humidity Pressure Visibility Wind Dir Wind Speed Gust Speed Precip Events Conditions
12:38 AM 55.4 °F 35.6 °F 47% 30.39 in 10.0 mi East 5.8 mph - N/A   Overcast
12:54 AM 54.0 °F 37.0 °F 53% 30.38 in 10.0 mi East 5.8 mph - N/A   Overcast
1:54 AM 54.0 °F 37.0 °F 53% 30.36 in 10.0 mi East 8.1 mph - N/A   Overcast
2:54 AM 54.0 °F 39.9 °F 59% 30.35 in 10.0 mi East 6.9 mph - N/A   Overcast
3:02 AM 53.6 °F 41.0 °F 62% 30.35 in 10.0 mi East 4.6 mph - N/A   Overcast
3:54 AM 53.1 °F 44.1 °F 71% 30.34 in 6.0 mi East 5.8 mph - 0.00 in Rain Light Rain
4:54 AM 51.1 °F 46.0 °F 83% 30.32 in 10.0 mi NE 3.5 mph - 0.01 in   Overcast
5:32 AM 50.0 °F 46.4 °F 87% 30.33 in 10.0 mi Calm Calm - 0.00 in   Overcast
5:39 AM 50.0 °F 46.4 °F 87% 30.32 in 7.0 mi North 3.5 mph - 0.00 in   Overcast
5:47 AM 50.0 °F 46.4 °F 87% 30.32 in 7.0 mi Calm Calm - 0.00 in   Overcast
5:54 AM 50.0 °F 46.9 °F 89% 30.32 in 10.0 mi North 3.5 mph - 0.00 in   Overcast
6:07 AM 50.0 °F 48.2 °F 94% 30.32 in 10.0 mi NNE 3.5 mph - N/A   Overcast
6:37 AM 50.0 °F 46.4 °F 87% 30.32 in 10.0 mi ENE 3.5 mph - N/A   Overcast
6:47 AM 50.0 °F 46.4 °F 87% 30.32 in 8.0 mi NE 3.5 mph - N/A   Overcast
7:19 AM 48.2 °F 48.2 °F 100% 30.32 in 2.5 mi ENE 4.6 mph - 0.01 in Rain Light Rain
7:24 AM 48.2 °F 48.2 °F 100% 30.32 in 4.0 mi NE 4.6 mph - 0.01 in   Overcast
7:40 AM 48.2 °F 48.2 °F 100% 30.32 in 2.5 mi ENE 3.5 mph - 0.02 in Rain Light Rain
7:45 AM 48.2 °F 48.2 °F 100% 30.33 in 1.8 mi ENE 4.6 mph - 0.03 in Rain Light Rain
7:49 AM 48.2 °F 48.2 °F 100% 30.33 in 1.2 mi ENE 3.5 mph - 0.03 in Rain Light Rain
7:54 AM 48.9 °F 48.0 °F 97% 30.34 in 1.0 mi ENE 3.5 mph - 0.04 in Rain Light Rain
8:14 AM 48.2 °F 48.2 °F 100% 30.34 in 0.8 mi ENE 3.5 mph - 0.04 in Rain Light Rain
8:23 AM 48.2 °F 48.2 °F 100% 30.33 in 1.0 mi NE 3.5 mph - 0.05 in Rain Light Rain
8:26 AM 48.2 °F 48.2 °F 100% 30.34 in 0.8 mi NE 3.5 mph - 0.06 in Rain Light Rain
8:40 AM 48.2 °F 48.2 °F 100% 30.32 in 1.0 mi ENE 5.8 mph - 0.08 in Rain Light Rain
8:43 AM 50.0 °F 48.2 °F 94% 30.32 in 1.2 mi ENE 6.9 mph - 0.08 in Rain Light Rain
8:47 AM 50.0 °F 48.2 °F 94% 30.32 in 2.0 mi East 6.9 mph - 0.08 in Rain Light Rain
8:51 AM 50.0 °F 48.2 °F 94% 30.32 in 3.0 mi East 5.8 mph - 0.08 in   Overcast
8:54 AM 50.0 °F 48.9 °F 96% 30.32 in 4.0 mi East 5.8 mph - 0.08 in   Overcast
9:54 AM 52.0 °F 51.1 °F 97% 30.31 in 8.0 mi East 6.9 mph - N/A   Overcast
10:05 AM 53.6 °F 51.8 °F 94% 30.31 in 7.0 mi East 5.8 mph - N/A   Mostly Cloudy
10:20 AM 53.6 °F 51.8 °F 94% 30.31 in 7.0 mi ENE 4.6 mph - N/A   Overcast
10:27 AM 53.6 °F 51.8 °F 94% 30.31 in 6.0 mi NE 3.5 mph - 0.00 in Rain Light Rain
10:51 AM 55.4 °F 51.8 °F 88% 30.31 in 8.0 mi ENE 3.5 mph - 0.00 in   Overcast
10:54 AM 55.0 °F 52.0 °F 89% 30.31 in 8.0 mi NE 3.5 mph - 0.00 in   Overcast
11:11 AM 55.4 °F 53.6 °F 94% 30.30 in 8.0 mi Calm Calm - N/A   Overcast
11:37 AM 55.4 °F 53.6 °F 94% 30.29 in 7.0 mi Calm Calm - N/A   Overcast
11:54 AM 57.0 °F 54.0 °F 89% 30.28 in 8.0 mi Calm Calm - N/A   Overcast
12:54 PM 60.1 °F 55.9 °F 86% 30.23 in 8.0 mi Calm Calm - N/A   Overcast
1:22 PM 62.6 °F 59.0 °F 88% 30.22 in 10.0 mi South 4.6 mph - N/A   Overcast
1:54 PM 64.0 °F 60.1 °F 87% 30.21 in 10.0 mi SSE 4.6 mph - N/A   Overcast
2:30 PM 64.4 °F 60.8 °F 88% 30.20 in 9.0 mi SW 6.9 mph - N/A   Overcast
2:49 PM 66.2 °F 62.6 °F 88% 30.19 in 10.0 mi South 5.8 mph - N/A   Mostly Cloudy
3:54 PM 69.1 °F 62.1 °F 78% 30.18 in 10.0 mi WSW 8.1 mph - 0.01 in   Clear
4:54 PM 68.0 °F 62.1 °F 81% 30.18 in 10.0 mi SW 3.5 mph - N/A   Mostly Cloudy
5:54 PM 63.0 °F 61.0 °F 93% 30.17 in 10.0 mi South 3.5 mph - N/A   Scattered Clouds
6:54 PM 63.0 °F 61.0 °F 93% 30.17 in 9.0 mi Calm Calm - N/A   Clear
7:30 PM 60.8 °F 59.0 °F 94% 30.17 in 1.5 mi Calm Calm - N/A   Clear
7:32 PM 59.0 °F 59.0 °F 100% 30.17 in 0.8 mi Calm Calm - N/A   Clear
7:54 PM 57.9 °F 57.9 °F 100% 30.17 in 0.2 mi Calm Calm - N/A Fog Fog
8:54 PM 55.9 °F 55.0 °F 97% 30.17 in 0.2 mi Calm Calm - N/A Fog Fog
9:13 PM 55.4 °F 55.4 °F 100% 30.17 in 1.5 mi Calm Calm - N/A   Clear
9:15 PM 55.4 °F 55.4 °F 100% 30.17 in 2.0 mi Calm Calm - N/A   Clear
9:23 PM 55.4 °F 55.4 °F 100% 30.18 in 3.0 mi Calm Calm - N/A   Clear
9:54 PM 55.9 °F 55.0 °F 97% 30.18 in 10.0 mi Calm Calm - N/A   Mostly Cloudy
10:54 PM 55.9 °F 55.9 °F 100% 30.17 in 5.0 mi Calm Calm - N/A   Overcast
11:54 PM 57.9 °F 57.0 °F 97% 30.17 in 8.0 mi Calm Calm - N/A   Overcast